EW1970 Weather Reports


Display with metric or nautical units.
time (UTC)temp
F
wind
direction
speed
MPH
gust
MPH
rain 1hr
in
rain 24hr
in
rain mn
in
humidity
%
barometer
mb
20260510141528 74 175 0.0 4.0 0.00 0.00 0.00 85 1014.6
20260510140013 73 153 0.0 2.0 0.00 0.00 0.00 86 1014.6
20260510134521 72 170 0.0 3.0 0.00 0.00 0.00 87 1014.4
20260510133025 71 193 1.0 4.0 0.00 0.00 0.00 89 1014.1
20260510131526 70 133 0.0 3.0 0.00 0.00 0.00 90 1013.8
20260510130028 69 128 0.0 3.0 0.00 0.00 0.00 91 1013.7
20260510124534 68 88 0.0 2.0 0.00 0.00 0.00 92 1013.5
20260510123019 67 153 0.0 2.0 0.00 0.00 0.00 91 1013.3
20260510121525 67 174 0.0 1.0 0.00 0.00 0.00 91 1012.8
20260510120013 67 174 0.0 0.0 0.00 0.00 0.00 91 1012.4
20260510114514 67 174 0.0 2.0 0.00 0.00 0.00 91 1012.5
20260510113018 67 289 0.0 0.0 0.00 0.00 0.00 90 1012.4
20260510111506 67 289 0.0 2.0 0.00 0.00 0.00 90 1012.3
20260510110022 68 289 0.0 2.0 0.00 0.00 0.00 89 1012.3
20260510104511 68 257 0.0 2.0 0.00 0.00 0.00 88 1012.1
20260510103019 69 246 0.0 2.0 0.00 0.00 0.00 87 1011.8
20260510101522 69 269 1.0 3.0 0.00 0.00 0.00 87 1011.8
20260510100008 69 26 0.0 2.0 0.00 0.00 0.00 87 1011.4
20260510094511 69 156 0.0 4.0 0.00 0.00 0.00 87 1011.5
20260510093022 70 110 0.0 4.0 0.00 0.00 0.00 86 1011.5
20260510091523 70 5 0.0 3.0 0.00 0.00 0.00 86 1011.4
20260510090040 70 196 0.0 6.0 0.00 0.00 0.00 86 1011.4
20260510084517 70 28 0.0 3.0 0.00 0.00 0.00 85 1011.5
20260510083014 70 92 0.0 4.0 0.00 0.00 0.00 84 1011.6
20260510081518 70 246 0.0 3.0 0.00 0.00 0.00 84 1011.6
20260510080023 70 123 0.0 3.0 0.00 0.00 0.00 84 1011.9
20260510074526 71 118 0.0 2.0 0.00 0.00 0.00 82 1011.8
20260510073013 71 269 0.0 2.0 0.00 0.00 0.00 81 1011.9
20260510071520 71 209 0.0 3.0 0.00 0.00 0.00 81 1011.9
20260510070020 72 117 0.0 2.0 0.00 0.00 0.00 80 1011.9
20260510064528 72 100 0.0 5.0 0.00 0.00 0.00 79 1011.9
20260510063026 73 169 0.0 6.0 0.00 0.00 0.00 78 1011.9
20260510061515 72 138 1.0 3.0 0.00 0.00 0.00 77 1011.8
20260510060021 73 153 0.0 3.0 0.00 0.00 0.00 77 1011.8
20260510054526 72 109 0.0 1.0 0.00 0.00 0.00 78 1011.7
20260510053004 72 136 0.0 2.0 0.00 0.00 0.00 80 1011.7
20260510051506 72 134 0.0 2.0 0.00 0.00 0.00 84 1011.6
20260510050005 73 115 0.0 1.0 0.00 0.00 0.00 85 1011.8
20260510044505 72 117 0.0 2.0 0.00 0.00 0.00 87 1011.7
20260510043010 73 139 0.0 2.0 0.00 0.00 0.00 85 1011.7
20260510041503 73 117 0.0 0.0 0.00 0.00 0.00 84 1011.6
20260510040010 74 117 0.0 0.0 0.00 0.00 0.00 83 1011.5
20260510034506 75 117 0.0 1.0 0.00 0.00 0.00 82 1011.5
20260510033004 75 155 0.0 0.0 0.00 0.00 0.00 81 1011.4
20260510031506 76 155 0.0 3.0 0.00 0.00 0.00 80 1011.2
20260510030008 77 157 0.0 1.0 0.00 0.00 0.00 78 1011.0
20260510024508 78 144 0.0 4.0 0.00 0.00 0.00 77 1010.8
20260510023010 78 67 0.0 6.0 0.00 0.00 0.00 76 1010.6
20260510021508 77 132 0.0 0.0 0.00 0.00 0.00 75 1010.2
20260510020008 77 144 0.0 2.0 0.00 0.00 0.00 72 1010.0
20260510014512 78 123 0.0 2.0 0.00 0.00 0.00 71 1009.7
20260510013014 79 123 0.0 2.0 0.00 0.00 0.00 68 1009.6
20260510011512 80 130 0.0 3.0 0.00 0.00 0.00 68 1009.6
20260510010008 80 148 0.0 2.0 0.00 0.00 0.00 67 1009.5
20260510004513 81 151 0.0 2.0 0.00 0.00 0.00 66 1009.4
20260510003021 81 106 0.0 3.0 0.00 0.00 0.00 66 1009.3
20260510001514 82 81 1.0 5.0 0.00 0.00 0.00 67 1009.1
20260510000017 83 62 0.0 4.0 0.00 0.00 0.00 65 1009.0
20260509234515 84 170 0.0 4.0 0.00 0.00 0.00 66 1008.8
20260509233023 85 352 0.0 4.0 0.00 0.00 0.00 62 1008.8
20260509231516 85 24 0.0 3.0 0.00 0.00 0.00 63 1008.7
20260509230018 86 103 1.0 3.0 0.00 0.00 0.00 60 1008.8
20260509224517 86 128 1.0 4.0 0.00 0.00 0.00 59 1008.8
20260509223003 87 125 1.0 4.0 0.00 0.00 0.00 58 1008.7
20260509221503 87 63 1.0 7.0 0.00 0.00 0.00 57 1008.7
20260509220006 88 103 0.0 4.0 0.00 0.00 0.00 58 1008.7
20260509214509 88 96 0.0 3.0 0.00 0.00 0.00 56 1008.9
20260509213004 88 72 0.0 2.0 0.00 0.00 0.00 53 1009.1
20260509211504 88 125 0.0 2.0 0.00 0.00 0.00 55 1009.2
20260509210008 88 111 0.0 5.0 0.00 0.00 0.00 57 1009.5
20260509204507 87 117 0.0 3.0 0.00 0.00 0.00 60 1009.7
20260509203022 86 20 0.0 6.0 0.00 0.00 0.00 52 1009.9
20260509201502 85 20 1.0 10.0 0.00 0.00 0.00 54 1010.3
20260509200004 83 113 4.0 15.0 0.00 0.00 0.00 53 1010.8
20260509194505 82 59 0.0 9.0 0.00 0.00 0.00 57 1010.9
20260509193010 87 321 1.0 9.0 0.00 0.00 0.00 64 1010.6
20260509191512 87 290 2.0 8.0 0.00 0.00 0.00 63 1010.3
20260509190005 85 257 1.0 10.0 0.00 0.00 0.00 68 1010.5
20260509184511 86 16 2.0 6.0 0.00 0.00 0.00 66 1010.8
20260509183013 84 53 0.0 8.0 0.00 0.00 0.00 66 1011.1
20260509181513 87 317 1.0 6.0 0.00 0.00 0.00 65 1011.2
20260509180020 86 288 1.0 5.0 0.00 0.00 0.00 71 1011.5
20260509174504 84 234 0.0 4.0 0.00 0.00 0.00 72 1011.5
20260509173003 82 293 1.0 3.0 0.00 0.00 0.00 73 1011.6
20260509171509 83 219 2.0 6.0 0.00 0.00 0.00 74 1012.1
20260509170016 83 296 2.0 7.0 0.00 0.00 0.00 72 1012.3
20260509164519 83 302 2.0 5.0 0.00 0.00 0.00 74 1012.1
20260509163007 81 274 2.0 5.0 0.00 0.00 0.00 80 1012.2
20260509161509 81 310 2.0 5.0 0.00 0.00 0.00 76 1012.2
20260509160012 79 271 3.0 8.0 0.00 0.00 0.00 81 1011.9
20260509154522 79 252 1.0 5.0 0.00 0.00 0.00 84 1011.9
20260509153023 79 102 2.0 7.0 0.00 0.00 0.00 84 1011.8
20260509151507 78 234 2.0 9.0 0.00 0.00 0.00 85 1011.2
20260509150013 77 258 2.0 8.0 0.00 0.00 0.00 86 1011.3
20260509144524 77 117 0.0 5.0 0.00 0.00 0.00 87 1011.2